BSAT-3C (JCSAT-110R)

Last updated on Sun Jun 21 2026 00:03:05 GMT+0000 (Coordinated Universal Time)

1 37776U 11041B 26171.41377874 -.00000355 00000+0 00000+0 0 9997 2 37776 0.0158 343.2052 0000148 324.4593 219.8630 1.00272966 50500
UTC large
Height (km)
Speed (km/s)
/
Latitude / Longitude
Inclination (degrees)
Orbital Period (minutes)
Azimuth
Elevation
Range (km)
Doppler Factor

Next 0 passes for location: London (51.5072 / 0.1276)

No passes found over London.
BSAT-3C (JCSAT-110R)